Location: Montreal
(45.5000°N, 73.5833°W)
Time: 20:11:43
(UTC-04:00)

Envisat - Pass Details

Date: 07 October 2017
Orbit: 764 x 766 km, 98.2° (Epoch: 23 October)

Event Time Altitude Azimuth Distance (km) Brightness Sun altitude
Exits shadow 21:18:23 37° 238° (WSW) 1,182 4.1 -30.9°
Maximum altitude 21:19:16 40° 263° (W) 1,123 4.1 -31.0°
Drops below altitude 10° 21:24:03 10° 332° (NNW) 2,312 6.1 -31.8°
Sets 21:26:30 0° 340° (NNW) 3,243 6.9 -32.1°
